Tiempo cada hora Cauterets

Hoy, 27 Enero, Miércoles

Tiempo Temperatura Precipitaciones Viento Presión Humedad
00:00 -2°C° 0 mm 2 mps 582 mmHg 98%
01:00 -2°C° 1.4 mm 2 mps 582 mmHg 98%
02:00 -2°C° 1.4 mm 2 mps 582 mmHg 97%
03:00 -2°C° 1.4 mm 2 mps 581 mmHg 97%
04:00 -2°C° 1 mm 2 mps 582 mmHg 97%
05:00 -2°C° 1 mm 2 mps 582 mmHg 98%
06:00 -2°C° 1 mm 2 mps 582 mmHg 98%
07:00 -2°C° 1.8 mm 2 mps 582 mmHg 98%
08:00 -2°C° 1.8 mm 2 mps 582 mmHg 98%
09:00 -1°C° 1.8 mm 2 mps 583 mmHg 98%
10:00 -1°C° 0.7 mm 2 mps 583 mmHg 98%
11:00 -1°C° 0.7 mm 2 mps 583 mmHg 97%
12:00 -1°C° 0.7 mm 2 mps 584 mmHg 96%
13:00 -1°C° 0.9 mm 2 mps 583 mmHg 96%
14:00 -1°C° 0.9 mm 2 mps 583 mmHg 97%
15:00 -1°C° 0.9 mm 2 mps 583 mmHg 97%
16:00 -1°C° 1.8 mm 2 mps 583 mmHg 97%
17:00 -1°C° 1.8 mm 2 mps 583 mmHg 97%
18:00 -2°C° 1.8 mm 2 mps 583 mmHg 97%
19:00 -1°C° 0.4 mm 2 mps 583 mmHg 97%
20:00 -1°C° 0.4 mm 2 mps 584 mmHg 97%
21:00 -1°C° 0.4 mm 2 mps 584 mmHg 97%
22:00 -1°C° 0 mm 2 mps 584 mmHg 97%
23:00 -2°C° 0 mm 2 mps 584 mmHg 97%

Mañana, 28 Enero, Jueves

Tiempo Temperatura Precipitaciones Viento Presión Humedad
00:00 -2°C° 0 mm 2 mps 584 mmHg 97%
01:00 -2°C° 0 mm 2 mps 584 mmHg 95%
02:00 -2°C° 0 mm 2 mps 583 mmHg 94%
03:00 -2°C° 0 mm 2 mps 583 mmHg 93%
04:00 -2°C° 0 mm 2 mps 583 mmHg 89%
05:00 -2°C° 0 mm 2 mps 583 mmHg 85%
06:00 -2°C° 0 mm 2 mps 583 mmHg 82%
07:00 -2°C° 0 mm 2 mps 583 mmHg 82%
08:00 -1°C° 0 mm 2 mps 583 mmHg 82%
09:00 +1°C° 0 mm 2 mps 584 mmHg 81%
10:00 +2°C° 0 mm 1 mps 584 mmHg 83%
11:00 +3°C° 0 mm 1 mps 584 mmHg 84%
12:00 +4°C° 0 mm 1 mps 585 mmHg 85%
13:00 +4°C° 0 mm 1 mps 584 mmHg 87%
14:00 +4°C° 0 mm 1 mps 584 mmHg 88%
15:00 +3°C° 0 mm 0 mps 583 mmHg 89%
16:00 +3°C° 0 mm 1 mps 582 mmHg 86%
17:00 +2°C° 0 mm 1 mps 582 mmHg 82%
18:00 0°C° 0 mm 1 mps 581 mmHg 79%
19:00 -2°C° 0 mm 2 mps 581 mmHg 79%
20:00 -1°C° 0 mm 2 mps 581 mmHg 79%
21:00 -1°C° 0 mm 2 mps 581 mmHg 80%
22:00 -1°C° 0 mm 3 mps 581 mmHg 82%
23:00 -1°C° 0 mm 3 mps 581 mmHg 83%

Pasado mañana, 29 Enero, Viernes

Tiempo Temperatura Precipitaciones Viento Presión Humedad
00:00 -1°C° 0 mm 3 mps 581 mmHg 85%
01:00 -1°C° 0 mm 3 mps 580 mmHg 86%
02:00 -1°C° 0 mm 3 mps 580 mmHg 87%
03:00 -1°C° 0 mm 3 mps 580 mmHg 88%
04:00 -1°C° 0.3 mm 3 mps 580 mmHg 91%
05:00 -1°C° 0.3 mm 2 mps 580 mmHg 93%
06:00 -2°C° 0.3 mm 2 mps 580 mmHg 96%
07:00 -2°C° 0.6 mm 2 mps 580 mmHg 95%
08:00 -2°C° 0.6 mm 2 mps 580 mmHg 95%
09:00 -2°C° 0.6 mm 2 mps 581 mmHg 95%
10:00 -1°C° 0.1 mm 2 mps 581 mmHg 93%
11:00 -1°C° 0.1 mm 2 mps 581 mmHg 91%
12:00 +1°C° 0.1 mm 2 mps 581 mmHg 89%
13:00 -1°C° 0.1 mm 2 mps 581 mmHg 89%
14:00 -1°C° 0.1 mm 2 mps 580 mmHg 89%
15:00 +1°C° 0.1 mm 1 mps 580 mmHg 89%
16:00 -2°C° 0 mm 2 mps 579 mmHg 85%
17:00 -3°C° 0 mm 2 mps 579 mmHg 82%
18:00 -4°C° 0 mm 2 mps 578 mmHg 78%
19:00 -4°C° 0 mm 2 mps 578 mmHg 75%
20:00 -4°C° 0 mm 2 mps 577 mmHg 73%
21:00 -4°C° 0 mm 2 mps 577 mmHg 70%
22:00 -4°C° 0 mm 3 mps 577 mmHg 71%
23:00 -4°C° 0 mm 3 mps 577 mmHg 72%

30 Enero, Sábado

Tiempo Temperatura Precipitaciones Viento Presión Humedad
00:00 -4°C° 0 mm 3 mps 576 mmHg 73%
01:00 -4°C° 0 mm 3 mps 576 mmHg 77%
02:00 -2°C° 0 mm 3 mps 575 mmHg 81%
03:00 -3°C° 0 mm 4 mps 575 mmHg 85%
04:00 -2°C° 0.8 mm 3 mps 575 mmHg 87%
05:00 -4°C° 0.8 mm 3 mps 574 mmHg 90%
06:00 -3°C° 0.8 mm 2 mps 574 mmHg 93%
07:00 -4°C° 1.5 mm 2 mps 573 mmHg 94%
08:00 -4°C° 1.5 mm 2 mps 573 mmHg 95%
09:00 -5°C° 1.5 mm 2 mps 573 mmHg 96%
10:00 -5°C° 1.3 mm 2 mps 573 mmHg 95%
11:00 -5°C° 1.3 mm 2 mps 572 mmHg 94%
12:00 -5°C° 1.3 mm 2 mps 572 mmHg 93%
13:00 -5°C° 0.6 mm 2 mps 572 mmHg 91%
14:00 -5°C° 0.6 mm 2 mps 572 mmHg 88%
15:00 -5°C° 0.6 mm 2 mps 571 mmHg 86%
16:00 -6°C° 1.4 mm 2 mps 571 mmHg 89%
17:00 -6°C° 1.4 mm 2 mps 571 mmHg 93%
18:00 -6°C° 1.4 mm 1 mps 571 mmHg 97%
19:00 -7°C° 2 mm 2 mps 571 mmHg 97%
20:00 -7°C° 2 mm 2 mps 570 mmHg 96%
21:00 -7°C° 2 mm 2 mps 570 mmHg 96%
22:00 -7°C° 2 mm 2 mps 570 mmHg 95%
23:00 -7°C° 2 mm 2 mps 570 mmHg 95%

31 Enero, Domingo

Tiempo Temperatura Precipitaciones Viento Presión Humedad
00:00 -7°C° 2 mm 2 mps 570 mmHg 95%
01:00 -7°C° 4.9 mm 3 mps 570 mmHg 96%
02:00 -7°C° 4.9 mm 3 mps 570 mmHg 97%
03:00 -8°C° 4.9 mm 4 mps 570 mmHg 98%
04:00 -7°C° 3.4 mm 4 mps 571 mmHg 97%
05:00 -7°C° 3.4 mm 5 mps 572 mmHg 97%
06:00 -6°C° 3.4 mm 5 mps 572 mmHg 97%
07:00 -6°C° 1.5 mm 5 mps 573 mmHg 97%
08:00 -6°C° 1.5 mm 5 mps 574 mmHg 97%
09:00 -5°C° 1.5 mm 4 mps 575 mmHg 96%
10:00 -5°C° 0.1 mm 4 mps 575 mmHg 95%
11:00 -4°C° 0.1 mm 4 mps 575 mmHg 94%
12:00 -4°C° 0.1 mm 3 mps 575 mmHg 93%
13:00 -4°C° 0.2 mm 3 mps 575 mmHg 93%
14:00 -3°C° 0.2 mm 2 mps 574 mmHg 93%
15:00 -3°C° 0.2 mm 2 mps 574 mmHg 94%
16:00 -3°C° 0.8 mm 2 mps 574 mmHg 95%
17:00 -3°C° 0.8 mm 2 mps 574 mmHg 96%
18:00 -3°C° 0.8 mm 2 mps 575 mmHg 97%
19:00 -4°C° 0.5 mm 3 mps 575 mmHg 96%
20:00 -4°C° 0.5 mm 3 mps 575 mmHg 95%
21:00 -5°C° 0.5 mm 4 mps 575 mmHg 94%
22:00 -5°C° 1.3 mm 4 mps 575 mmHg 95%
23:00 -6°C° 1.3 mm 5 mps 575 mmHg 95%

1 Febrero, Lunes

Tiempo Temperatura Precipitaciones Viento Presión Humedad
00:00 -6°C° 1.3 mm 5 mps 575 mmHg 96%
01:00 -6°C° 0.9 mm 5 mps 575 mmHg 96%
02:00 -6°C° 0.9 mm 5 mps 575 mmHg 96%
03:00 -6°C° 0.9 mm 5 mps 575 mmHg 97%
04:00 -6°C° 0.6 mm 5 mps 576 mmHg 97%
05:00 -5°C° 0.6 mm 4 mps 576 mmHg 97%
06:00 -5°C° 0.6 mm 4 mps 577 mmHg 97%
07:00 -5°C° 1.4 mm 3 mps 577 mmHg 97%
08:00 -5°C° 1.4 mm 3 mps 578 mmHg 98%
09:00 -4°C° 1.4 mm 2 mps 578 mmHg 98%
10:00 -3°C° 1 mm 2 mps 578 mmHg 97%
11:00 -3°C° 1 mm 2 mps 578 mmHg 96%
12:00 -3°C° 1 mm 2 mps 579 mmHg 96%
13:00 -2°C° 0 mm 2 mps 579 mmHg 94%
14:00 -2°C° 0 mm 2 mps 579 mmHg 93%
15:00 -1°C° 0 mm 2 mps 579 mmHg 92%
16:00 -2°C° 0.2 mm 2 mps 579 mmHg 92%
17:00 -2°C° 0.2 mm 2 mps 579 mmHg 92%
18:00 -2°C° 0.2 mm 2 mps 579 mmHg 91%
19:00 -2°C° 1.1 mm 2 mps 579 mmHg 92%
20:00 -2°C° 1.1 mm 2 mps 580 mmHg 93%
21:00 -2°C° 1.1 mm 2 mps 580 mmHg 94%
22:00 -2°C° 0 mm 2 mps 580 mmHg 94%
23:00 -2°C° 0 mm 2 mps 580 mmHg 93%
Mostrar más